Location: Prosper
(33.2362°N, 96.8011°W)
Time: 08:05:58
(UTC+00:00)

Cosmos 1782 - Pass Details

Date: 03 December 2021
Orbit: 537 x 547 km, 82.5° (Epoch: 26 January)

Event Time Altitude Azimuth Distance (km) Brightness Sun altitude
Rises 23:50:01 0° 177° (S) 2,700 6.6 -6.6°
Reaches altitude 10° 23:52:11 10° 174° (S) 1,810 5.7 -7.0°
Maximum altitude 23:56:06 60° 94° (E) 626 2.8 -7.8°
Drops below altitude 10° 00:00:03 10° 14° (NNE) 1,820 5.1 -8.6°
Sets 00:02:14 0° 11° (N) 2,716 6.0 -9.0°
